Location: Brno
(49.2000°N, 16.6330°E)
Time: 16:00:01
(UTC+01:00)

Cosmos 332 Rocket - Visible Passes

Search period start: 02 March 2015 00:00
Search period end: 12 March 2015 00:00
Orbit: 684 x 706 km, 74.0° (Epoch: 01 March)

Date Brightness Start Highest point End Pass type
(mag) Time Alt. Az. Time Alt. Az. Time Alt. Az.
02 Mar 7.3 05:17:10 10° ESE 05:18:56 12° E 05:20:57 10° ENE visible
03 Mar 5.8 05:55:41 10° SSE 05:59:59 35° ESE 06:04:22 10° NE visible
04 Mar 7.0 04:59:13 10° SE 05:01:30 14° E 05:04:00 10° ENE visible
05 Mar 5.4 05:38:09 10° S 05:42:35 39° ESE 05:47:04 10° NE visible
06 Mar 6.8 04:41:22 10° SE 04:44:03 15° E 04:46:57 10° ENE visible
07 Mar 5.1 05:20:39 10° S 05:25:10 43° ESE 05:29:46 10° NE visible
08 Mar 6.6 04:23:35 10° SE 04:26:37 17° E 04:29:49 10° NE visible
09 Mar 4.8 05:03:09 10° S 05:07:45 48° ESE 05:12:26 10° NNE visible
10 Mar 6.4 04:05:52 10° SE 04:09:10 19° E 04:12:39 10° NE visible
10 Mar 3.9 05:44:29 10° SW 05:49:15 61° WNW 05:54:04 10° NNE visible
11 Mar 4.5 04:45:41 10° S 04:50:21 54° ESE 04:55:05 10° NNE visible
